sat.trackr.live / text

‹ back to catalog

STARLINK-37083

NORAD 68227 · 2026-053W

PAYLOAD ACTIVE UNKNOWN

§ Identity

Operator
Country
US
Launch date
2026-03-17
Launch site
AFWTR
Launch vehicle
Mass (kg)
RCS (m²)

Purposes: comms

External: N2YO · Heavens-Above · Gunter

§ Orbital elements

Epoch: 2026-05-25T02:39:38.178720Z

Period
93.91 min
Inclination
97.2886°
Eccentricity
0.0001509
Mean motion
15.33449059 rev/d
Perigee alt
464.5 km
Apogee alt
466.6 km
Semi-major
6,843.7 km
B*
4.0393e-4
RAAN
20.6198°
Arg perigee
94.9807°
Mean anomaly
265.1608°
Rev number
1,190

§ Raw data

STARLINK-370831 68227U 26053W   26145.11085855  .00012989  00000+0  40393-3 0  99922 68227  97.2886  20.6198 0001509  94.9807 265.1608 15.33449059 11907

JSON: /api/v1/satellites/68227 · /tle

For live sub-satellite position, see the globe view (requires WebGL).

§ Visibility from observer

Set your observer location to see the next 7 days of passes ≥ 10°. The values pass through the URL so the page stays shareable.

No JS? Fill the form by hand. The geolocation button needs JavaScript.